Starlink 33842

operational
NORAD ID: 63782 Int'l Des: 2025-091 Owner: SPXS Country: US Constellation: starlink
LEOCIRCULAR

Über Starlink 33842

Beschreibung wird geladen...

Live-Position

3D-Globus wird geladen...

Nächste Überflüge

Höhenverlauf

Altitude vs Time

uPlot chart will show altitude changes over time

Zweizeiliger Elementsatz

1 63782U 25091H 26034.96107985 .00033775 00000-0 12309-2 0 9995
2 63782 43.0029 243.0303 0001739 274.7752 85.2901 15.27589974 43835
Epoch: 3. Feb. 2026 • Age: 14 hours

Aktueller Status

Höhe 482.1 km
Geschwindigkeit 7.63 km/s
Subsatellitenpunkt 5.05°N, 87.93°W
Startdatum 2. Mai 2025
Alter 0.7 years
Typ internet

Technische Details

Klassifizierung Payload
Masse 575.00 kg
Trockenmasse 530.00 kg
Gesamtmasse 575.00 kg
Länge 0.30 m
Durchmesser 4.10 m
Spannweite 29.00 m
Form Box + pan
Hersteller SPXS
Bus-Typ Starlink V2MO
Phasenstatus In Orbit
Besitzer/Staat SPXS/US

Große Konstellationen

Loading constellations...